Regional Weather Roundup
Issued by NWS Grand Forks, ND

Home | Current Version | Previous Version | Graphics & Text | Print | Product List | Glossary On
Versions: 1 2 3 4 5 6 7 8 9 10 11 12 13 14 15 16 17 18 19 20 21 22 23 24 25 26 27 28 29 30 31 32 33 34 35 36 37 38 39 40 41 42 43 44 45 46 47 48 49 50
590
ASUS43 KFGF 281431
RWRFGF
PRAIRIE TO PINES  WEATHER ROUNDUP
NATIONAL WEATHER SERVICE EASTERN NORTH DAKOTA/GRAND FORKS ND
900 AM CDT FRI APR 28 2017

 **SATELLITE DATA USED TO AUGMENT SKY COVER AT AUTOMATED STATIONS**
 *****  WEATHER ACROSS EASTERN NORTH DAKOTA  *****

CITY           SKY/WX    TMP DP  RH WIND       PRES   REMARKS
GRAND FORKS    FAIR      39  30  70 NW9       29.95R
GRAND FRKS AFB FAIR      38  27  65 N13       29.95R
DEVILS LAKE    FAIR      37  21  52 N12       29.97R
FARGO          FAIR      36  30  79 N9        29.95R
WAHPETON ARPT  FAIR      36  30  80 NW8       29.97R
$$

 ***** WEATHER ACROSS CENTRAL AND WESTERN NORTH DAKOTA  *****

CITY           SKY/WX    TMP DP  RH WIND       PRES   REMARKS
BISMARCK       FAIR      39  29  67 CALM      30.00R
MINOT          FAIR      39  29  67 CALM      30.00R
JAMESTOWN      FAIR      37  27  67 NW9       29.96R
MINOT AFB      FAIR      38  28  65 NW5       30.00R
GARRISON         N/A     38  29  70 N3        30.00R
WILLISTON      FAIR      39  27  62 CALM      30.02R
DICKINSON      FAIR      35  26  69 E7        29.95R
HETTINGER      FAIR      36  27  69 E12       29.96R
$$

 *****  OTHER AIRPORT OBSERVATIONS IN OUR AREA  *****

CITY           SKY/WX    TMP DP  RH WIND       PRES   REMARKS
WALHALLA       NOT AVBL
GRAFTON AIRPOR FAIR      37  23  56 NW13      29.98R
VALLEY CITY AR FAIR      37  25  60 N10       29.98R
CANDO          NOT AVBL
CAVALIER APRT  FAIR      37  19  48 N13G21    29.96R
GWINNER        SUNNY     39  30  70 MISG      29.97R
SHEYENNE NWR     N/A     38  28  66 N7        29.95
ROLLA          FAIR      37  16  41 N12       29.98S
 ***** THE ABOVE OBSERVATIONS ARE NON NWS ARE NOT QUALITY
       CONTROLLED AND MAY MIS-REPORT RAIN FOR SNOW...
$$

  *****  WEATHER ACROSS NORTHERN MINNESOTA  *****

CITY           SKY/WX    TMP DP  RH WIND       PRES   REMARKS
FLAG ISLAND    CLOUDY    32  21  64 NW18      29.86R WCI  20
WARROAD        FAIR      36  25  64 NW9       29.88R
ROSEAU         FAIR      34  27  75 NW7       29.89S
HALLOCK        FAIR      37  27  65 N13       29.94R
THF RVR FALLS  FAIR      34  26  72 NW10      29.93R
BAUDETTE       FAIR      33  22  63 NW15      29.83S WCI  23
WASKISH        FAIR      36  27  69 W13G18    29.86S
CROOKSTON      FAIR      37  30  75 NW10      29.95S
STEPHEN NDAWN    N/A     36  27  69 NW12        N/A
GREENBUSH NDAW   N/A     30  25  80 NW8         N/A  WCI  23
$$
  *****  WEATHER ACROSS CENTRAL AND WEST MINNESOTA  *****

CITY           SKY/WX    TMP DP  RH WIND       PRES   REMARKS
FOSSTON        FAIR      36  25  64 NW12      29.92R
BEMIDJI        FAIR      32  23  68 NW14      29.88R WCI  22
PARK RAPIDS    FAIR      34  22  61 N17       29.87R WCI  23
ELBOW LAKE     FAIR      34  29  80 NW9       29.95R
WADENA         FAIR      32  28  86 N7        29.90R
DETROIT LAKES  FAIR      32  30  93 N10G16    29.93R WCI  24
MOORHEAD       FAIR      36  28  75 N13       29.96R
FERGUS FALLS   FAIR      36  28  75 N12       29.95R
MORRIS MN      FAIR      37  28  70 N15       29.95R
STAPLES        FAIR      32  27  80 NW7       29.90R
$$
  *****  WEATHER ELSEWHERE ACROSS MINNESOTA  *****

CITY           SKY/WX    TMP DP  RH WIND       PRES   REMARKS
DULUTH         FAIR      32  22  66 NW20G29   29.79R WCI  20
INTRNTL FALLS  PTSUNNY   33  23  66 NW21G28   29.80R WCI  21
ELY            CLOUDY    28  23  80 W10G18    29.75S WCI  19
CLOQUET        CLOUDY    32  21  64 NW13G23   29.83R WCI  22
WHEATON        FAIR      37  28  70 N12       29.98R
BRAINERD       PTSUNNY   34  24  67 NW10      29.89R
HIBBING        CLOUDY    29  24  82 NW15      29.81R WCI  18
ALEXANDRIA     PTSUNNY   34  27  75 N8        29.92R
SAINT CLOUD    FAIR      35  25  66 NW9       29.92R
MINNEAPOLIS    FAIR      39  26  59 NW13      29.89S
$$

  *****  WEATHER ACROSS SOUTH DAKOTA  *****

CITY           SKY/WX    TMP DP  RH WIND       PRES   REMARKS
SIOUX FALLS    PTSUNNY   36  31  82 NE6       29.92R
BROOKINGS      FAIR      36  25  64 NE15      29.91R
WATERTOWN      FAIR      37  28  70 N17       29.91S
HURON          FAIR      41  27  57 NE13      29.94R
SISSETON         N/A     38  29  70 N8        29.95R
ABERDEEN       FAIR      38  29  70 N7        29.97R
MITCHELL       FAIR      36  31  82 NE8       29.93R
PIERRE         FAIR      36  29  75 E18       29.92R
MOBRIDGE       FAIR      42  25  50 E10       29.94R
RAPID CITY     CLOUDY    36  30  79 NE10      29.87R
$$

  *****  SOME WEATHER IN NEARBY STATES *****

CITY           SKY/WX    TMP DP  RH WIND       PRES   REMARKS
GLASGOW MT     FAIR      43  19  38 E7        29.97R
GREAT FALLS MT CLOUDY    38  34  85 SW5       29.97R
CHEYENNE WY    FAIR      33  23  66 N5        29.66R
SCOTTSBLUFF NE SNOW      33  32  96 E9        29.70R VSB 1/2
OMAHA NE       LGT RAIN  38  33  82 NE21      29.81S
DES MOINES IA  LGT RAIN  40  28  62 NE15      29.88R
DAVENPORT IA   FAIR      42  34  73 NE9       29.91S
CHICAGO IL     PTSUNNY   48  34  58 CALM      29.94S
EAU CLAIRE WI  FAIR      39  23  52 NW14      29.86S
LA CROSSE WI   FAIR      42  29  59 SW3       29.91R
$$

  *****  SOME NATIONAL WEATHER *****

CITY           SKY/WX    TMP DP  RH WIND       PRES   REMARKS
LA GUARDIA NY  PTSUNNY   66  60  81 VRB5      29.98R HAZE
RALEIGH NC     FAIR      77  68  73 SW7       30.07R
ATLANTA GA     CLOUDY    73  68  84 S9        30.04R
NEW ORLEANS LA CLOUDY    79  74  84 S14G22    29.86R
OKLAHOMA CITY  PTSUNNY   61  56  83 S13       29.60R
ALBUQUERQUE NM PTSUNNY   45  27  49 N3        29.75R
SALT LAKE CITY PTSUNNY   37  32  82 E3        29.89R
LOS ANGELES CA FAIR      68  33  27 N15G26    29.77R
BOISE ID       FAIR      38  32  79 NW13      30.04R
SEATTLE WA     MOCLDY    45  41  86 S3        30.31R
$$

*** WEATHER ACROSS MANITOBA...SASKATCHEWAN AND ONTARIO ***
                ***ONTARIO***

CITY           SKY/WX    TMP DP  RH WIND       PRES   REMARKS
GERALDTON      FLURRIES  23  19  86 SW20      29.57R WCI   8
THUNDER BAY    FLURRIES  30  23  74 W14       29.69R WCI  20
SIOUX LOOKOUT  LGT SNOW  25  19  80 NW14G23   29.70R DRFTSNOWWCI  13
TORONTO        PTSUNNY   55  39  54 SW15      29.98R
BIG TROUT LK   CLOUDY    27   5  39 N10G25    29.62R WCI  17
PICKLE LAKE    LGT SNOW  21  18  86 NW14G23   29.60R VSB 3/4 WCI   8
DRYDEN         LGT SNOW  27  25  93 NW8G21    29.73R VSB 1   WCI  18
KENORA         CLOUDY    30  18  59 NW13G22   29.82R WCI  20
$$
                *** MANITOBA***

CITY           SKY/WX    TMP DP  RH WIND       PRES   REMARKS
BRANDON        MOSUNNY   39  14  35 NW8       30.01R
DAUPHIN        SUNNY     37  12  35 NW7       30.03R
ISLAND LAKE    PTSUNNY   27   5  39 N9        29.93  WCI  17
PILOT MOUND      N/A     36  16  44 NW10        N/A
THE PAS        MOSUNNY   30  14  51 N3        30.05R
THOMPSON       CLOUDY    30   9  40 NW5       30.02S
WINNIPEG       MOSUNNY   37  19  48 NW16      29.95R
LYNN LAKE      SUNNY     37  10  32 NW6       30.04S
CHURCHILL      PTSUNNY   19  10  68 W3        30.02F
GILLAM         PTSUNNY   23   7  50 NW5       29.99F WCI  17
$$
                ***SASKATCHEWAN***

CITY           SKY/WX    TMP DP  RH WIND       PRES   REMARKS
ESTEVAN        MOSUNNY   37  27  65 VRB2      30.01R
KINDERSLEY     PTSUNNY   32  32 100 W9        29.96R FOG     WCI  24
LLOYDMINSTER   CLOUDY    34  32  93 NE7       30.02R
PRINCE ALBERT  MOSUNNY   37  19  48 E6        30.02R
REGINA         PTSUNNY   39  25  56 SE8       29.99R
YORKTON        SUNNY     34  27  75 CALM      30.03R
N. BATTLEFORD  MOSUNNY   41  27  56 E10       29.99R
LA RONGE       MOSUNNY   36  18  48 VRB2      30.06R
SASKATOON      PTSUNNY   39  23  52 S3        30.00R
SWIFT CURRENT  CLOUDY    34  34 100 SW5G24    29.96R
$$
NOTE: THESE ARE AUTOMATED STATIONS WITH LIMITED QUALITY CONTROL
      "FAIR" INDICATES FEW OR NO CLOUDS BELOW 12,000 FEET WITH NO
      SIGNIFICANT WEATHER AND/OR OBSTRUCTIONS TO VISIBILITY.
      SKY/WX - SKY CONDITION AND SIGNIFICANT WEATHER.
      TMP - AIR TEMPERATURE.    DP   - DEWPOINT TEMPERATURE.
      RH  - RELATIVE HUMIDITY.  PRES - PRESSURE.
      HX  - HEAT INDEX.         WCI  - WIND CHILL INDEX.
$




USA.gov is the U.S. government's official web portal to all federal, state and local government web resources and services.